Home   Weather   Halifax   Past weeks
Flag for Canada

Past Weather in Halifax, Nova Scotia, Canada — January 2018

Now
50 °F

Passing clouds.


Feels Like: 43 °F
Forecast: N/A
Wind: 22 mph from Northwest

Location: Halifax International Airport

Current Time: Apr 6, 2020 at 7:37:59 pm

Latest Report: Apr 6, 2020 at 6:00 pm


Visibility: 15 mi

Pressure: 29.66 "Hg

Humidity: 28%

Dew Point: 18 °F

Location of HalifaxLocation

January 2018 Weather in Halifax — Graph

°F

High & Low Weather Summary for January 2018

 TemperatureHumidityPressure
High59 °F (Jan 13, 6:00 am)100% (Jan 4, 3:00 am)30.78 "Hg (Jan 4, 3:00 am)
Low1 °F (Jan 7, 8:00 am)41% (Jan 22, 11:00 am)28.54 "Hg (Jan 5, 1:34 am)
Average26 °F87%29.98 "Hg
* Reported Jan 1 12:00 am — Jan 31 11:00 pm, Halifax. Weather by CustomWeather, © 2020

Note: Actual official high and low records may vary slightly from our data, if they occured in-between our weather recording intervals... More about our weather records

Halifax Weather History for January 1, 2018

Scroll right to see more
 ConditionsComfort  
Time TempWeatherWind HumidityBarometerVisibility
12:00 am
Mon, Jan 1
10 °FLight snow. Overcast.17 mph79%29.85 "Hg12 mi
12:39 am10 °FLight snow. Overcast.15 mph85%29.85 "Hg12 mi
1:00 am10 °FLight snow. Overcast.13 mph85%29.85 "Hg15 mi
2:00 am10 °FLight snow. Overcast.14 mph85%29.86 "Hg15 mi
3:00 am10 °FLight snow. Overcast.14 mph85%29.88 "Hg15 mi
4:00 am9 °FLight snow. Overcast.13 mph92%29.87 "Hg15 mi
5:00 am9 °FLight snow. Overcast.13 mph92%29.88 "Hg12 mi
6:00 am10 °FLight snow. Overcast.9 mph85%29.89 "Hg12 mi
7:00 am10 °FLight snow. Overcast.12 mph85%29.89 "Hg10 mi
8:00 am10 °FLight snow. Overcast.12 mph85%29.90 "Hg10 mi
9:00 am10 °FLight snow. Overcast.13 mph85%29.91 "Hg6 mi
10:00 am10 °FLight snow. Overcast.10 mph85%29.93 "Hg10 mi
11:00 am12 °FLight snow. Overcast.12 mph85%29.93 "Hg6 mi
12:00 pm12 °FLight snow. Overcast.10 mph85%29.91 "Hg10 mi
1:00 pm14 °FLight snow. Overcast.10 mph79%29.89 "Hg10 mi
1:29 pm14 °FLight snow. Low clouds.10 mph79%29.89 "Hg4 mi
2:00 pm14 °FLight snow. Partly sunny.10 mph79%29.89 "Hg10 mi
3:00 pm14 °FLight snow. Overcast.7 mph79%29.90 "Hg10 mi
4:00 pm12 °FLight snow. Overcast.7 mph85%29.91 "Hg12 mi
5:00 pm12 °FLight snow. Overcast.8 mph85%29.93 "Hg12 mi
6:00 pm14 °FLight snow. Overcast.7 mph79%29.93 "Hg12 mi
7:00 pm12 °FLight snow. Overcast.10 mph85%29.94 "Hg10 mi
8:00 pm12 °FLight snow. Passing clouds.9 mph85%29.95 "Hg12 mi
9:00 pm12 °FLight snow. Overcast.9 mph85%29.94 "Hg12 mi
10:00 pm12 °FLight snow. Overcast.7 mph85%29.94 "Hg6 mi
11:00 pm12 °FLight snow. Overcast.6 mph85%29.95 "Hg6 mi
Weather by CustomWeather, © 2020

See weather overview

Advertising